Location: Ar Ranvel
(48.3000°N, 4.8833°W)
Time: 08:40:07
(UTC+00:00)

Cosmos 2228 - Pass Details

Date: 16 June 2021
Orbit: 588 x 618 km, 82.5° (Epoch: 01 August)

Event Time Altitude Azimuth Distance (km) Brightness Sun altitude
Rises 22:52:36 0° 351° (N) 2,904 8.2 -15.7°
Reaches altitude 10° 22:54:50 10° 353° (N) 1,995 6.9 -15.8°
Maximum altitude 22:59:16 75° 80° (E) 646 3.1 -16.0°
Enters shadow 23:01:23 30° 160° (SSE) 1,109 3.8 -16.2°
